Flag for Germany Weather past 2 weeks in Frankenthal (Pfalz), Rhineland-Palatinate, Germany

Now
59 °F

Passing clouds.


Feels Like: 58 °F
Forecast: 51 / 67 °F
Wind: 6 mph from South

Location: Baden Wurttemberg - Neuostheim

Current Time: Apr 25, 2015 at 10:56:51 PM

Latest Report: Apr 25, 2015 at 8:20 PM


Visibility: N/A

Pressure: 29.83 "Hg

Humidity: 82%

Dew point: 54 °F

Location of Frankenthal (Pfalz)Location

Historic Weather in Frankenthal (Pfalz) — Graph

°F

Frankenthal (Pfalz) temperature yesterday

Maximum temperature yesterday: 70 °F (at 4:20 PM)
Minimum temperature yesterday: 39 °F (at 5:50 AM)
Average temperature yesterday: 60 °F

Past Weeks' High & Low Weather Summary

 TemperatureHumidityPressure
High79 °F (Apr 15, 4:20 PM)87% (Apr 13, 6:50 AM)30.45 "Hg (Apr 13, 6:50 AM)
Low37 °F (Apr 23, 5:50 AM)19% (Apr 15, 8:20 PM)29.83 "Hg (Apr 25, 7:20 AM)
Average59 °F47%30.16 "Hg
* Reported Apr 10 8:20 PM — Apr 25 8:20 PM, Frankenthal (Pfalz), Weather by CustomWeather, © 2015

Note: Actual official high and low records may vary slightly from our data, if they occured in-between our weather recording intervals... More about our weather records

Advertising

Frankenthal (Pfalz) weather history for previous 24 hours

 ConditionsComfort  
Time TempWeatherWind HumidityBarometerVisibility
8:20 PM
Sat, Apr 25
59 °FPassing clouds.6 mph82%29.83 "HgN/A
7:50 PM59 °FPassing clouds.5 mph82%29.83 "HgN/A
7:20 PM59 °FPartly sunny.7 mph82%29.83 "HgN/A
6:50 PM59 °FBroken clouds.6 mph82%29.83 "HgN/A
6:20 PM59 °FLight rain. Partly sunny.6 mph82%29.83 "HgN/A
5:50 PM61 °FLight rain. Partly sunny.5 mph77%29.83 "HgN/A
5:20 PM61 °FLight rain. Partly sunny.7 mph72%29.83 "HgN/A
4:50 PM63 °FLight rain. Partly sunny.7 mph64%29.83 "HgN/A
4:20 PM63 °FBroken clouds.7 mph59%29.83 "HgN/A
3:50 PM63 °FLight rain. Broken clouds.7 mph64%29.83 "HgN/A
3:20 PM64 °FLight rain. Partly sunny.10 mph56%29.83 "HgN/A
2:50 PM64 °FLight rain. Partly sunny.8 mph56%29.83 "HgN/A
2:20 PM64 °FPartly sunny.6 mph56%29.83 "HgN/A
1:50 PM64 °FPassing clouds.9 mph56%29.83 "HgN/A
1:20 PM63 °FPassing clouds.9 mph59%29.83 "HgN/A
12:50 PM61 °FPassing clouds.8 mph63%29.83 "HgN/A
12:20 PM59 °FPartly sunny.6 mph72%29.86 "HgN/A
11:50 AM55 °FLight rain. Broken clouds.5 mph77%29.86 "HgN/A
11:20 AM55 °FScattered clouds.6 mph72%29.86 "HgN/A
10:50 AM55 °FPassing clouds.7 mph67%29.86 "HgN/A
10:20 AM55 °FBroken clouds.6 mph67%29.86 "HgN/A
9:50 AM54 °FOvercast.5 mph72%29.86 "HgN/A
9:20 AM54 °FLight rain. Partly sunny.5 mph72%29.86 "HgN/A
8:50 AM54 °FPartly sunny.7 mph63%29.86 "HgN/A
8:20 AM54 °FPartly sunny.6 mph58%29.86 "HgN/A
7:50 AM54 °FPassing clouds.6 mph54%29.83 "HgN/A
7:20 AM54 °FPassing clouds.6 mph54%29.83 "HgN/A
10:50 PM
Fri, Apr 24
59 °FClear.5 mph45%29.89 "Hg10 mi
10:20 PM61 °FClear.3 mph42%29.89 "Hg10 mi
Weather by CustomWeather, © 2015

See weather overviewHow to use our weather pages